Weerstation Grootegast  Weerstation Grootegast


15 daagse weersverwachting A Coruña (ES)

  • Overzicht
  • Per uur
  • 15 dagen
  • Extra
  • Vergelijk
  • Kaarten
  • Dagkaart
  • Meer »
  • Info
  • Statistieken
  • Directe link
    Temp 6h Neerslag Wind  
 08:51     17:58    Daglengte: 9:07 Vandaag
19:00
24.0 mm
6
warningclass
 08:52     17:57    Daglengte: 9:05 Morgen
01:00
25.7 mm
8
warningclass
07:00
10°
30.7 mm
8
warningclass
13:00
10°
35.1 mm
8
warningclass
19:00
10°
36.0 mm
8
 08:53     17:57    Daglengte: 9:04 Zondag 06 Dec
01:00
10°
37.8 mm
8
07:00
10°
38.4 mm
7
13:00
11°
39.4 mm
4
19:00
11°
41.5 mm
4
 08:54     17:57    Daglengte: 9:03 Maandag 07 Dec
01:00
12°
42.3 mm
5
07:00
12°
38.4 mm
8
13:00
12°
97.8 mm
9
Locatie info
Region: Galicia
Latitude: 43.3713°N
Longitude: -8.3960°E
22 masl
Temp/Neerslag /Baro Onweer/Dauwpunt
    Temp Baro 1h Neerslag Dauwpunt Wind UV Bewolking  
 08:51     17:58    Daglengte: 9:07 Vandaag
16:00
Voelt als: 4.7°
998.2 hPa 10.9 mm
48%
4.8°
7
Windvlaag: -1.6 m/s
86%
17:00
Voelt als: 4.0°
998.7 hPa 4.4 mm
82%
5.8°
7
Windvlaag: -3.1 m/s
89% warningclass
18:00
Voelt als: 4.1°
999.2 hPa 4.3 mm
82%
5.1°
6
Windvlaag: -3.9 m/s
86% warningclass
19:00
Voelt als: 4.1°
999.7 hPa 4.4 mm
82%
5.1°
6
Windvlaag: -3.6 m/s
87% warningclass
20:00
Voelt als: 4.0°
1000.5 hPa 4.2 mm
82%
5.3°
6
Windvlaag: -3.3 m/s
87% warningclass
21:00
Voelt als: 4.2°
1000.9 hPa 4.0 mm
82%
5.4°
7
Windvlaag: -1.7 m/s
89% warningclass
22:00
Voelt als: 4.5°
1001.0 hPa 4.2 mm
82%
5.2°
6
Windvlaag: -0.9 m/s
83% warningclass
23:00
Voelt als: 4.8°
1001.2 hPa 4.2 mm
82%
4.6°
6
Windvlaag: -2.2 m/s
80% warningclass
 08:52     17:57    Daglengte: 9:05 Morgen
00:00
Voelt als: 4.9°
1001.2 hPa 4.4 mm
82%
4.7°
6
Windvlaag: -1.3 m/s
85% warningclass
01:00
Voelt als: 3.5°
1001.4 hPa 4.7 mm
82%
4.7°
8
Windvlaag: -1 m/s
89% warningclass
02:00
Voelt als: 4.6°
1001.7 hPa 4.7 mm
82%
5.8°
7
Windvlaag: -1.7 m/s
90% warningclass
03:00
Voelt als: 4.9°
1001.9 hPa 4.9 mm
82%
5.5°
7
Windvlaag: -1.7 m/s
81% warningclass
04:00
Voelt als: 5.1°
1002.3 hPa 5.0 mm
82%
5.2°
7
Windvlaag: -2.2 m/s
71% warningclass
05:00
Voelt als: 5.4°
1002.6 hPa 5.3 mm
82%
6.1°
6
Windvlaag: -1.5 m/s
87% warningclass
06:00
Voelt als: 5.9°
1003.0 hPa 5.3 mm
82%
5.8°
8
Windvlaag: -1.3 m/s
81% warningclass
07:00
10°
Voelt als: 6.0°
1003.5 hPa 5.3 mm
82%
6.3°
8
Windvlaag: -2.9 m/s
66% warningclass
08:00
10°
Voelt als: 6.1°
1004.2 hPa 5.5 mm
82%
6.5°
8
Windvlaag: -1.6 m/s
69%
09:00
10°
Voelt als: 6.3°
1004.8 hPa 5.8 mm
82%
6.6°
9
Windvlaag: -2.9 m/s
65% warningclass
10:00
10°
1005.5 hPa 5.7 mm
82%
6.3°
8
Windvlaag: -3.7 m/s
72% warningclass
11:00
10°
1006.1 hPa 6.1 mm
82%
7.1°
8
Windvlaag: -2.6 m/s
87% warningclass
12:00
10°
Voelt als: 6.4°
1006.7 hPa 5.8 mm
82%
6.8°
9
Windvlaag: -2.4 m/s
86%
13:00
10°
1007.0 hPa 6.2 mm
82%
7.0°
8
Windvlaag: -2 m/s
85% warningclass
14:00
10°
1007.1 hPa 6.1 mm
82%
6.3°
9
Windvlaag: -2.5 m/s
62%
15:00
10°
Voelt als: 6.2°
1007.2 hPa 6.2 mm
82%
6.8°
8
Windvlaag: -2.8 m/s
73%
16:00
10°
Voelt als: 6.5°
1007.4 hPa 6.1 mm
82%
6.4°
8
Windvlaag: -2.9 m/s
63%
17:00
10°
Voelt als: 6.2°
1007.7 hPa 5.8 mm
82%
6.4°
9
Windvlaag: -2.9 m/s
54%
18:00
10°
Voelt als: 6.1°
1008.1 hPa 5.8 mm
82%
5.5°
9
Windvlaag: -3.5 m/s
73%
19:00
10°
Voelt als: 6.0°
1008.8 hPa 6.1 mm
82%
6.7°
8
Windvlaag: -3.8 m/s
83%
20:00
10°
Voelt als: 6.2°
1009.1 hPa 6.4 mm
82%
6.5°
8
Windvlaag: -4.2 m/s
88%
21:00
10°
Voelt als: 6.4°
1009.5 hPa 6.3 mm
82%
6.8°
8
Windvlaag: -4.5 m/s
68%
22:00
10°
Voelt als: 6.6°
1010.0 hPa 6.1 mm
82%
6.4°
8
Windvlaag: -2.7 m/s
49%
23:00
10°
Voelt als: 6.6°
1010.3 hPa 6.2 mm
81%
6.7°
8
Windvlaag: -2.4 m/s
54%
 08:53     17:57    Daglengte: 9:04 Zondag 06 Dec
00:00
10°
1010.4 hPa 6.5 mm
81%
7.1°
9
Windvlaag: -2.7 m/s
54%
01:00
10°
1010.7 hPa 6.4 mm
82%
6.9°
8
Windvlaag: -2.6 m/s
67%
02:00
10°
1010.9 hPa 6.4 mm
82%
6.7°
8
Windvlaag: -3.1 m/s
59%
03:00
10°
1010.8 hPa 6.3 mm
81%
6.9°
8
Windvlaag: -3.6 m/s
71%
04:00
10°
1010.8 hPa 6.3 mm
82%
6.9°
8
Windvlaag: -3.1 m/s
73%
05:00
10°
1010.9 hPa 6.4 mm
82%
6.7°
7
Windvlaag: -2.5 m/s
85%
06:00
10°
1011.0 hPa 6.4 mm
82%
6.5°
7
Windvlaag: -3.6 m/s
70%
07:00
10°
1011.0 hPa 6.4 mm
82%
6.8°
7
Windvlaag: -3 m/s
82%
08:00
10°
1011.3 hPa 6.3 mm
82%
7.1°
7
Windvlaag: -3.2 m/s
91%
09:00
10°
1011.6 hPa 6.5 mm
82%
7.2°
6
Windvlaag: -3.1 m/s
90%
10:00
10°
1011.8 hPa 6.6 mm
100%
8.5°
5
Windvlaag: -2.2 m/s
99%
11:00
10°
1011.9 hPa 6.5 mm
100%
8.6°
4
Windvlaag: -2.4 m/s
98%
12:00
11°
1011.8 hPa 6.7 mm
100%
8.4°
4
Windvlaag: -1.7 m/s
98%
13:00
11°
1011.3 hPa 6.8 mm
100%
8.2°
4
Windvlaag: -1.6 m/s
98%
14:00
11°
1010.7 hPa 7.2 mm
100%
8.7°
5
Windvlaag: -0.6 m/s
99%
15:00
11°
1010.2 hPa 7.0 mm
100%
9.1°
4
Windvlaag: -1 m/s
99%
16:00
11°
1009.9 hPa 6.9 mm
100%
9.4°
4
Windvlaag: -0.5 m/s
98%
17:00
11°
1009.9 hPa 6.6 mm
100%
9.3°
3
Windvlaag: 0.7 m/s
97%
18:00
11°
1009.9 hPa 7.0 mm
100%
9.3°
3
Windvlaag: 1.7 m/s
95%
19:00
11°
1010.0 hPa 6.9 mm
100%
9.3°
4
Windvlaag: 2.1 m/s
94%
20:00
10°
1009.9 hPa 6.5 mm
100%
9.2°
4
Windvlaag: 2 m/s
99%
21:00
11°
1009.4 hPa 6.8 mm
100%
9.4°
4
Windvlaag: 2 m/s
94%
22:00
11°
1009.1 hPa 6.7 mm
100%
9.7°
4
Windvlaag: 1.8 m/s
100%
23:00
12°
1008.9 hPa 6.5 mm
100%
10.5°
4
Windvlaag: 1 m/s
100%
 08:54     17:57    Daglengte: 9:03 Maandag 07 Dec
00:00
12°
1008.9 hPa 9.4 mm
100%
10.0°
5
Windvlaag: 0.9 m/s
100%
01:00
12°
1008.9 hPa 6.4 mm
100%
10.2°
5
Windvlaag: 1 m/s
100%
02:00
12°
1008.7 hPa
93%
10.0°
6
Windvlaag: 1.1 m/s
100%
03:00
12°
1008.5 hPa 9.0 mm
98%
10.3°
5
Windvlaag: 1.8 m/s
100%
04:00
12°
1008.3 hPa 9.0 mm
100%
10.2°
6
Windvlaag: 1.7 m/s
98%
05:00
12°
1008.0 hPa 6.8 mm
100%
10.5°
6
Windvlaag: 2.4 m/s
100%
06:00
12°
1008.0 hPa 6.7 mm
100%
10.3°
7
Windvlaag: 2.1 m/s
100%
07:00
12°
1008.1 hPa 6.8 mm
100%
9.8°
8
Windvlaag: 0.5 m/s
100%
08:00
12°
1008.7 hPa 16.3 mm
100%
9.9°
8
Windvlaag: 14.1 m/s
97%
09:00
12°
1009.1 hPa 16.2 mm
100%
9.5°
8
Windvlaag: 12.8 m/s
93%
10:00
12°
1009.6 hPa 16.4 mm
100%
9.4°
8
Windvlaag: 12.5 m/s
90%
11:00
12°
1009.8 hPa 16.4 mm
100%
9.4°
8
Windvlaag: 12.3 m/s
86%
12:00
12°
1010.1 hPa 16.1 mm
100%
9.3°
9
Windvlaag: 13.1 m/s
82%
13:00
12°
1010.0 hPa 16.6 mm
100%
9.1°
9
Windvlaag: 1.9 m/s
73%
Temp/Neerslag /Baro Onweer/Dauwpunt
    Temp Baro Neerslag Dauwpunt Wind Bewolking  
 08:51     17:58    Daglengte: 9:07 Vandaag
16:00
Voelt als: 4.7°
998.2 hPa 10.9 mm 4.8°
7
86%
19:00
Voelt als: 4.1°
999.7 hPa 13.1 mm 5.1°
6
87% warningclass
22:00
Voelt als: 4.5°
1001.0 hPa 12.4 mm 5.2°
6
83% warningclass
 08:52     17:57    Daglengte: 9:05 Morgen
01:00
Voelt als: 3.5°
1001.4 hPa 13.3 mm 4.7°
8
89% warningclass
04:00
Voelt als: 5.1°
1002.3 hPa 14.7 mm 5.2°
7
71% warningclass
07:00
10°
Voelt als: 6.0°
1003.5 hPa 16.0 mm 6.3°
8
66% warningclass
10:00
10°
1005.5 hPa 17.1 mm 6.3°
8
72% warningclass
13:00
10°
1007.0 hPa 18.0 mm 7.0°
8
85% warningclass
16:00
10°
Voelt als: 6.5°
1007.4 hPa 18.3 mm 6.4°
8
63%
19:00
10°
Voelt als: 6.0°
1008.8 hPa 17.7 mm 6.7°
8
83%
22:00
10°
Voelt als: 6.6°
1010.0 hPa 18.8 mm 6.4°
8
49%
 08:53     17:57    Daglengte: 9:04 Zondag 06 Dec
01:00
10°
1010.7 hPa 19.0 mm 6.9°
8
67%
04:00
10°
1010.8 hPa 19.1 mm 6.9°
8
73%
07:00
10°
1011.0 hPa 19.3 mm 6.8°
7
82%
10:00
10°
1011.8 hPa 19.4 mm 8.5°
5
99%
13:00
11°
1011.3 hPa 20.0 mm 8.2°
4
98%
16:00
11°
1009.9 hPa 21.0 mm 9.4°
4
98%
19:00
11°
1010.0 hPa 20.5 mm 9.3°
4
94%
22:00
11°
1009.1 hPa 20.0 mm 9.7°
4
100%
 08:54     17:57    Daglengte: 9:03 Maandag 07 Dec
01:00
12°
1008.9 hPa 22.3 mm 10.2°
5
100%
04:00
12°
1008.3 hPa 18.0 mm 10.2°
6
98%
07:00
12°
1008.1 hPa 20.4 mm 9.8°
8
100%
10:00
12°
1009.6 hPa 48.8 mm 9.4°
8
90%
13:00
12°
1010.0 hPa 49.1 mm 9.1°
9
73%
16:00
11°
1008.2 hPa 51.4 mm 8.5°
9
79%
19:00
10°
1007.8 hPa 52.5 mm 8.5°
8
92%
22:00
10°
1008.3 hPa 54.8 mm 8.3°
8
68%
 08:55     17:57    Daglengte: 9:02 Dinsdag 08 Dec
01:00
11°
1008.9 hPa 57.2 mm 8.1°
8
44%
04:00
10°
1010.7 hPa 57.9 mm 8.2°
6
58%
07:00
10°
Voelt als: 7.3°
1012.5 hPa 59.5 mm 8.6°
5
73%
10:00
10°
1014.2 hPa 62.0 mm 8.7°
5
81%
13:00
11°
1016.0 hPa 64.2 mm 8.8°
6
89%
16:00
10°
1016.9 hPa 65.8 mm 8.3°
5
82%
19:00
10°
Voelt als: 7.8°
1017.8 hPa 67.1 mm 7.8°
5
76%
22:00
Voelt als: 7.0°
1018.9 hPa 69.8 mm 7.2°
3
69%
 08:56     17:57    Daglengte: 9:01 Woensdag 09 Dec
01:00
Voelt als: 6.6°
1020.0 hPa 72.1 mm 6.5°
2
62%
04:00
Voelt als: 6.6°
1020.2 hPa 72.5 mm 6.6°
2
66%
07:00
Voelt als: 6.5°
1020.4 hPa 72.5 mm 6.9°
2
71%
10:00
Voelt als: 7.1°
1020.9 hPa 72.7 mm 7.3°
3
77%
13:00
10°
Voelt als: 8.0°
1021.3 hPa 72.9 mm 7.7°
4
84%
16:00
10°
Voelt als: 7.3°
1020.0 hPa 74.3 mm 7.6°
5
88%
19:00
Voelt als: 6.7°
1018.8 hPa 75.1 mm 7.4°
5
92%
22:00
10°
Voelt als: 7.4°
1018.2 hPa 75.8 mm 8.2°
5
88%
 08:57     17:57    Daglengte: 9:00 Donderdag 10 Dec
01:00
10°
1017.5 hPa 82.4 mm 9.0°
5
84%
04:00
11°
1016.8 hPa 92.2 mm 9.9°
5
88%
07:00
12°
1016.2 hPa 98.0 mm 10.7°
4
92%
10:00
13°
1016.2 hPa 100.3 mm 11.4°
4
91%
13:00
14°
1016.1 hPa 101.8 mm 12.1°
4
91%
16:00
14°
1015.0 hPa 103.4 mm 12.5°
4
91%
19:00
14°
1013.9 hPa 105.0 mm 12.9°
4
92%
22:00
14°
1014.1 hPa 106.8 mm 13.6°
4
92%
 08:58     17:57    Daglengte: 8:59 Vrijdag 11 Dec
01:00
15°
1014.4 hPa 107.8 mm 14.3°
4
92%
04:00
15°
1014.3 hPa 108.1 mm 14.4°
4
92%
07:00
15°
1014.3 hPa 110.3 mm 14.4°
4
92%
10:00
16°
1015.0 hPa 111.5 mm 14.0°
5
91%
13:00
16°
1015.9 hPa 223.4 mm 13.5°
6
91%
19:00
14°
1015.6 hPa 224.2 mm 11.8°
5
90%
 08:59     17:57    Daglengte: 8:58 Zaterdag 12 Dec
01:00
14°
1015.1 hPa 230.1 mm 12.1°
8
87%
07:00
14°
1015.0 hPa 236.2 mm 12.0°
6
87%
13:00
15°
1014.9 hPa 252.3 mm 13.7°
6
27%
19:00
15°
1015.6 hPa 269.1 mm 13.8°
4
92%
 08:59     17:58    Daglengte: 8:59 Zondag 13 Dec
01:00
12°
1018.5 hPa 276.0 mm 10.5°
5
45%
07:00
12°
1017.3 hPa 278.0 mm 9.8°
7
64%
13:00
15°
1018.3 hPa 279.5 mm 12.8°
7
45%
19:00
14°
1016.6 hPa 279.9 mm 12.7°
7
51%
 09:00     17:58    Daglengte: 8:58 Maandag 14 Dec
01:00
13°
1013.1 hPa 280.0 mm 9.3°
7
0%
07:00
15°
1012.6 hPa 289.7 mm 13.9°
5
1%
13:00
13°
1019.5 hPa 0.4 mm 9.8°
3
68%
19:00
12°
1020.1 hPa 1.2 mm 9.8°
2
71%
 09:01     17:58    Daglengte: 8:57 Dinsdag 15 Dec
01:00
11°
1022.0 hPa 1.3 mm 9.3°
2
75%
07:00
11°
1021.9 hPa 1.2 mm 8.7°
2
66%
13:00
13°
1022.8 hPa 0.6 mm 9.2°
3
69%
19:00
12°
1022.7 hPa 0.8 mm 9.6°
2
68%
 09:02     17:58    Daglengte: 8:56 Woensdag 16 Dec
01:00
11°
1023.8 hPa 1.7 mm 9.1°
2
65%
07:00
11°
1024.3 hPa 1.6 mm 8.4°
2
65%
13:00
12°
1026.2 hPa 0.7 mm 8.6°
1
60%
19:00
11°
1026.3 hPa 0.6 mm 8.8°
1
72%
 09:02     17:59    Daglengte: 8:57 Donderdag 17 Dec
01:00
10°
1026.7 hPa 0.6 mm 8.3°
1
76%
07:00
10°
1025.4 hPa 0.8 mm 8.2°
1
67%
13:00
12°
1025.7 hPa 2.3 mm 8.7°
0
67%
19:00
11°
1025.5 hPa 1.7 mm 8.8°
1
64%
 09:03     17:59    Daglengte: 8:56 Vrijdag 18 Dec
01:00
10°
1026.5 hPa 0.7 mm 8.2°
1
59%
07:00
10°
1025.4 hPa 0.6 mm 8.0°
1
62%
13:00
12°
1025.3 hPa 1.1 mm 8.5°
1
63%
19:00
11°
1024.8 hPa 0.7 mm 8.0°
2
57%
 09:03     18:00    Daglengte: 8:57 Zaterdag 19 Dec
01:00
10°
1025.1 hPa 0.4 mm 7.7°
2
54%
07:00
10°
Voelt als: 9.6°
1023.8 hPa 0.6 mm 7.4°
1
58%
13:00
12°
1023.9 hPa 0.9 mm 7.6°
2
51%
  CAPE Lifted Index Hail Supercell Tornado SRH 3km CL BTM PRES CL TOP PRES Swiss DWD icon SMHI TS
 08:51     17:58    Daglengte: 9:07 Vandaag
16:00 423 J/kg -1.8 K 0 % 0 % 0 % 0 m²/s² 0 0 -0.36 95
17:00 591 J/kg -2.5 K 0 % 0 % 0 % 0 m²/s² 0 0 -1.06 95
18:00 258 J/kg -1.4 K 0 % 0 % 0 % 0 m²/s² 0 0 -0.95 95
19:00 517 J/kg -2.0 K 0 % 0 % 0 % 0 m²/s² 0 0 -0.59 95
20:00 444 J/kg -1.6 K 0 % 0 % 0 % 0 m²/s² 0 0 -0.31 95
21:00 436 J/kg -1.9 K 0 % 0 % 0 % 0 m²/s² 0 0 1.55 95
22:00 524 J/kg -2.7 K 0 % 0 % 0 % 0 m²/s² 0 0 0.12 95
23:00 519 J/kg -2.3 K 0 % 0 % 0 % 0 m²/s² 0 0 -1.13 95
 08:52     17:57    Daglengte: 9:05 Morgen
00:00 639 J/kg -3.3 K 0 % 0 % 0 % 0 m²/s² 0 0 -0.33 95
01:00 69 J/kg -2.5 K 0 % 0 % 0 % 0 m²/s² 0 0 0.89 95
02:00 569 J/kg -2.9 K 0 % 0 % 0 % 0 m²/s² 0 0 1.03 95
03:00 445 J/kg -2.0 K 0 % 0 % 0 % 0 m²/s² 0 0 0.25 95
04:00 380 J/kg -1.8 K 0 % 0 % 0 % 0 m²/s² 0 0 0.09 95
05:00 157 J/kg -0.7 K 0 % 0 % 0 % 0 m²/s² 0 0 -0.16 95
06:00 384 J/kg -1.7 K 0 % 0 % 0 % 0 m²/s² 0 0 -0.59 95
07:00 292 J/kg -0.7 K 0 % 0 % 0 % 0 m²/s² 0 0 0.59 95
08:00 434 J/kg -1.6 K 0 % 0 % 0 % 0 m²/s² 0 0 -1.03 80
09:00 337 J/kg -0.6 K 0 % 0 % 0 % 0 m²/s² 0 0 0.09 95
10:00 329 J/kg 0.1 K 0 % 0 % 0 % 0 m²/s² 0 0 1.45 95
11:00 369 J/kg 1.0 K 0 % 0 % 0 % 0 m²/s² 0 0 2.89 95
12:00 369 J/kg 1.9 K 0 % 0 % 0 % 0 m²/s² 0 0 2.44 81
13:00 432 J/kg 1.4 K 0 % 0 % 0 % 0 m²/s² 0 0 2.06 95
14:00 249 J/kg 3.8 K 0 % 0 % 0 % 0 m²/s² 0 0 6.05 80
15:00 131 J/kg 4.2 K 0 % 0 % 0 % 0 m²/s² 0 0 4.59 80
16:00 282 J/kg 3.8 K 0 % 0 % 0 % 0 m²/s² 0 0 4.79 80
17:00 284 J/kg 4.8 K 0 % 0 % 0 % 0 m²/s² 0 0 5.61 80
18:00 276 J/kg 5.3 K 0 % 0 % 0 % 0 m²/s² 0 0 6.68 80
19:00 315 J/kg 5.3 K 0 % 0 % 0 % 0 m²/s² 0 0 7.19 80
20:00 191 J/kg 6.3 K 0 % 0 % 0 % 0 m²/s² 0 0 9.69 80
21:00 127 J/kg 7.4 K 0 % 0 % 0 % 0 m²/s² 0 0 13.55 80
22:00 192 J/kg 6.2 K 0 % 0 % 0 % 0 m²/s² 0 0 7.76 80
23:00 280 J/kg 5.2 K 0 % 0 % 0 % 0 m²/s² 0 0 6.55 80
 08:53     17:57    Daglengte: 9:04 Zondag 06 Dec
00:00 285 J/kg 5.4 K 0 % 0 % 0 % 0 m²/s² 0 0 6.39 80
01:00 217 J/kg 5.8 K 0 % 0 % 0 % 0 m²/s² 0 0 7.15 80
02:00 170 J/kg 6.9 K 0 % 0 % 0 % 0 m²/s² 0 0 8.58 80
03:00 163 J/kg 6.8 K 0 % 0 % 0 % 0 m²/s² 0 0 9.44 80
04:00 109 J/kg 7.4 K 0 % 0 % 0 % 0 m²/s² 0 0 11.69 80
05:00 78 J/kg 7.9 K 0 % 0 % 0 % 0 m²/s² 0 0 12.64 80
06:00 54 J/kg 8.2 K 0 % 0 % 0 % 0 m²/s² 0 0 14.53 80
07:00 100 J/kg 7.1 K 0 % 0 % 0 % 0 m²/s² 0 0 14.66 80
08:00 119 J/kg 6.5 K 0 % 0 % 0 % 0 m²/s² 0 0 14.06 80
09:00 105 J/kg 6.4 K 0 % 0 % 0 % 0 m²/s² 0 0 13.99 61
10:00 137 J/kg 5.4 K 0 % 0 % 0 % 0 m²/s² 0 0 11.04 61
11:00 121 J/kg 5.2 K 0 % 0 % 0 % 0 m²/s² 0 0 9.43 61
12:00 96 J/kg 4.9 K 0 % 0 % 0 % 0 m²/s² 0 0 6.79 61
13:00 74 J/kg 5.1 K 0 % 0 % 0 % 0 m²/s² 0 0 5.46 61
14:00 76 J/kg 5.0 K 0 % 0 % 0 % 0 m²/s² 0 0 5.39 63
15:00 67 J/kg 4.0 K 0 % 0 % 0 % 0 m²/s² 0 0 4.33 61
16:00 69 J/kg 3.4 K 0 % 0 % 0 % 0 m²/s² 0 0 3.73 61
17:00 74 J/kg 3.0 K 0 % 0 % 0 % 0 m²/s² 0 0 3.33 80
18:00 92 J/kg 2.8 K 0 % 0 % 0 % 0 m²/s² 0 0 3.07 80
19:00 89 J/kg 3.0 K 0 % 0 % 0 % 0 m²/s² 0 0 3.33 80
20:00 96 J/kg 3.2 K 0 % 0 % 0 % 0 m²/s² 0 0 3.8 3
21:00 108 J/kg 3.6 K 0 % 0 % 0 % 0 m²/s² 0 0 4.26 61
22:00 88 J/kg 4.4 K 0 % 0 % 0 % 0 m²/s² 0 0 5.27 80
23:00 65 J/kg 5.0 K 0 % 0 % 0 % 0 m²/s² 0 0 6.02 80
 08:54     17:57    Daglengte: 9:03 Maandag 07 Dec
00:00 46 J/kg 5.6 K 0 % 0 % 0 % 0 m²/s² 0 0 6.71 80
01:00 41 J/kg 5.9 K 0 % 0 % 0 % 0 m²/s² 0 0 7.22 3
02:00 27 J/kg 5.9 K 0 % 0 % 0 % 0 m²/s² 0 0 7.37 3
03:00 56 J/kg 5.7 K 0 % 0 % 0 % 0 m²/s² 0 0 6.87 80
04:00 56 J/kg 5.4 K 0 % 0 % 0 % 0 m²/s² 0 0 6.99 3
05:00 60 J/kg 4.9 K 0 % 0 % 0 % 0 m²/s² 0 0 5.92 80
06:00 26 J/kg 4.8 K 0 % 0 % 0 % 0 m²/s² 0 0 5.16 80
07:00 28 J/kg 3.4 K 0 % 0 % 0 % 0 m²/s² 0 0 3.67 80
08:00 240 J/kg 1.0 K 0 % 0 % 0 % 0 m²/s² 0 0 1.24 80
09:00 124 J/kg 3.1 K 0 % 0 % 0 % 0 m²/s² 0 0 3.37 80
10:00 132 J/kg 3.1 K 0 % 0 % 0 % 0 m²/s² 0 0 3.64 80
11:00 120 J/kg 2.8 K 0 % 0 % 0 % 0 m²/s² 0 0 3.37 80
12:00 122 J/kg 3.1 K 0 % 0 % 0 % 0 m²/s² 0 0 3.97 80
13:00 112 J/kg 3.3 K 0 % 0 % 0 % 0 m²/s² 0 0 4.68 80
Temp Baro Wind Neerslag
  EWN Forecast EWN WRFDA DWD ICON FMI HIRLAM MET Norway GFS
 08:51     17:58    Daglengte: 9:07 Vandaag
16:00 8.3° 998.2 hPa 7.2 m/s 10.9 mm 8.6° 995.7 hPa 6.3 m/s 19.5 mm 6.9° 999.3 hPa 5.4 m/s 20.1 mm 9.4° 997.2 hPa 9.2 m/s 0.0 mm 7.8° 998.5 hPa 7.0 m/s 8.8° 997.8 hPa 7.8 m/s
19:00 7.6° 999.7 hPa 6.5 m/s 13.1 mm 8.0° 997.1 hPa 6.3 m/s 63.2 mm 6.6° 1000.1 hPa 5.4 m/s 6.8 mm 9.6° 998.7 hPa 10.9 m/s 0.0 mm 6.3° 1000.4 hPa 4.4 m/s 8.2° 999.3 hPa 8.3 m/s
22:00 7.9° 1001.0 hPa 6.2 m/s 12.4 mm 8.7° 998.3 hPa 7.3 m/s 66.4 mm 6.9° 1001.5 hPa 5.1 m/s 6.9 mm 9.7° 1000.9 hPa 10.0 m/s 0.0 mm 6.4° 1001.6 hPa 3.3 m/s 8.1° 1001.9 hPa 8.4 m/s
 08:52     17:57    Daglengte: 9:05 Morgen
01:00 7.4° 1001.4 hPa 7.5 m/s 13.3 mm 5.8° 1000.2 hPa 5.3 m/s 71.9 mm 7.0° 1001.4 hPa 5.5 m/s 7.4 mm 9.4° 1001.4 hPa 10.0 m/s 0.0 mm 6.7° 1002.5 hPa 7.4 m/s 8.8° 1002.3 hPa 8.3 m/s
04:00 8.5° 1002.3 hPa 6.8 m/s 14.7 mm 8.5° 1000.3 hPa 7.9 m/s 76.7 mm 7.8° 1003.0 hPa 6.4 m/s 8.4 mm 10.7° 1002.0 hPa 13.7 m/s 0.0 mm 7.7° 1002.9 hPa 4.6 m/s 9.1° 1003.2 hPa 8.1 m/s
07:00 9.6° 1003.5 hPa 8.3 m/s 16.0 mm 8.8° 1001.9 hPa 10.5 m/s 85.5 mm 9.5° 1003.7 hPa 7.4 m/s 6.4 mm 11.1° 1003.6 hPa 13.1 m/s 0.0 mm 8.2° 1004.3 hPa 7.3 m/s 9.2° 1004.6 hPa 8.4 m/s
10:00 10.0° 1005.5 hPa 7.8 m/s 17.1 mm 9.9° 1004.1 hPa 8.0 m/s 94.2 mm 9.7° 1005.8 hPa 7.5 m/s 7.8 mm 11.5° 1005.6 hPa 11.0 m/s 0.0 mm 9.1° 1006.0 hPa 6.0 m/s 9.7° 1006.3 hPa 9.1 m/s
13:00 10.1° 1007.0 hPa 8.3 m/s 18.0 mm 9.5° 1005.3 hPa 8.1 m/s 97.1 mm 9.8° 1007.4 hPa 8.2 m/s 8.4 mm 11.6° 1007.0 hPa 10.8 m/s 0.0 mm 8.8° 1008.2 hPa 7.0 m/s 9.6° 1007.9 hPa 8.4 m/s
16:00 9.9° 1007.4 hPa 8.4 m/s 18.3 mm 9.7° 1005.5 hPa 7.6 m/s 103.3 mm 9.7° 1008.0 hPa 8.3 m/s 5.8 mm 10.3° 1007.4 hPa 9.4 m/s 0.0 mm 9.0° 1008.0 hPa 7.4 m/s 9.3° 1008.3 hPa 7.9 m/s
19:00 9.5° 1008.8 hPa 8.5 m/s 17.7 mm 8.9° 1007.0 hPa 7.9 m/s 107.5 mm 9.4° 1009.9 hPa 8.1 m/s 3.7 mm 10.5° 1008.2 hPa 10.7 m/s 0.0 mm 7.8° 1009.8 hPa 7.3 m/s 8.7° 1009.7 hPa 7.9 m/s
22:00 10.0° 1010.0 hPa 8.0 m/s 18.8 mm 9.6° 1007.9 hPa 8.3 m/s 112.0 mm 9.5° 1011.2 hPa 7.3 m/s 4.2 mm 11.0° 1009.5 hPa 9.6 m/s 0.0 mm 9.2° 1010.8 hPa 6.5 m/s 8.5° 1011.1 hPa 6.9 m/s
 08:53     17:57    Daglengte: 9:04 Zondag 06 Dec
01:00 10.2° 1010.7 hPa 8.4 m/s 19.0 mm 10.0° 1008.3 hPa 8.7 m/s 117.5 mm 9.7° 1011.5 hPa 7.8 m/s 3.5 mm 11.8° 1010.2 hPa 11.1 m/s 0.0 mm 9.0° 1011.7 hPa 6.4 m/s 9.3° 1011.7 hPa 7.6 m/s
04:00 10.1° 1010.8 hPa 7.8 m/s 19.1 mm 9.7° 1009.2 hPa 7.7 m/s 121.9 mm 9.7° 1011.9 hPa 7.0 m/s 1.9 mm 11.7° 1010.3 hPa 10.7 m/s 0.0 mm 8.9° 1011.7 hPa 6.3 m/s 9.5° 1011.6 hPa 7.5 m/s
07:00 10.2° 1011.0 hPa 6.6 m/s 19.3 mm 9.5° 1009.1 hPa 6.1 m/s 122.2 mm 10.0° 1011.4 hPa 5.6 m/s 2.5 mm 11.8° 1011.0 hPa 8.6 m/s 0.0 mm 9.0° 1012.0 hPa 6.2 m/s 9.1° 1011.7 hPa 6.8 m/s
10:00 10.3° 1011.8 hPa 5.1 m/s 19.4 mm 10.3° 1010.0 hPa 5.7 m/s 122.4 mm 10.5° 1011.9 hPa 2.9 m/s 2.1 mm 8.9° 1013.0 hPa 4.8 m/s 9.6° 1012.9 hPa 5.8 m/s
13:00 10.6° 1011.3 hPa 4.3 m/s 20.0 mm 11.2° 1010.5 hPa 6.0 m/s 123.2 mm 10.7° 1011.0 hPa 3.9 m/s 5.2 mm 9.8° 1012.7 hPa 3.0 m/s 10.6° 1013.2 hPa 5.8 m/s
16:00 10.8° 1009.9 hPa 4.1 m/s 21.0 mm 10.8° 1009.1 hPa 4.0 m/s 123.7 mm 11.5° 1009.3 hPa 4.1 m/s 7.1 mm 10.1° 1011.3 hPa 3.6 m/s 10.1° 1011.9 hPa 3.8 m/s
19:00 10.5° 1010.0 hPa 3.6 m/s 20.5 mm 10.3° 1009.5 hPa 1.6 m/s 127.6 mm 12.1° 1009.3 hPa 3.9 m/s 1.5 mm 10.2° 1010.3 hPa 3.8 m/s 10.0° 1012.0 hPa 3.5 m/s
22:00 11.1° 1009.1 hPa 3.6 m/s 20.0 mm 10.2° 1010.4 hPa 0.4 m/s 129.9 mm 12.1° 1008.1 hPa 2.9 m/s 2.2 mm 11.2° 1009.0 hPa 5.6 m/s 9.8° 1012.0 hPa 3.1 m/s
 08:54     17:57    Daglengte: 9:03 Maandag 07 Dec
01:00 12.0° 1008.9 hPa 5.2 m/s 22.3 mm 9.9° 1010.6 hPa 0.4 m/s 130.8 mm 14.1° 1008.1 hPa 7.4 m/s 2.4 mm 12.2° 1008.8 hPa 5.8 m/s 10.1° 1010.8 hPa 3.6 m/s
04:00 11.6° 1008.3 hPa 5.6 m/s 18.0 mm 9.3° 1010.2 hPa 1.7 m/s 132.1 mm 13.3° 1008.0 hPa 7.2 m/s 0.5 mm 11.7° 1008.2 hPa 6.2 m/s 11.9° 1009.2 hPa 4.2 m/s
07:00 11.7° 1008.1 hPa 7.8 m/s 20.4 mm 10.8° 1009.1 hPa 3.9 m/s 133.0 mm 13.0° 1008.5 hPa 6.9 m/s 1.9 mm 11.1° 1008.2 hPa 7.8 m/s 12.8° 1009.4 hPa 8.8 m/s
10:00 11.6° 1009.6 hPa 8.5 m/s 48.8 mm 12.1° 1010.9 hPa 8.2 m/s 141.5 mm 12.8° 1010.7 hPa 8.5 m/s 2.4 mm 10.9° 1008.4 hPa 8.5 m/s 12.1° 1011.4 hPa 7.6 m/s
13:00 11.6° 1010.0 hPa 9.1 m/s 49.1 mm 12.8° 1011.3 hPa 9.9 m/s 142.5 mm 12.4° 1011.4 hPa 8.2 m/s 2.3 mm 10.8° 1008.6 hPa 9.2 m/s 12.1° 1012.7 hPa 7.5 m/s
16:00 10.6° 1008.2 hPa 8.6 m/s 51.4 mm 10.5° 1007.8 hPa 8.7 m/s 11.8° 1012.1 hPa 7.8 m/s 51.4 mm
19:00 10.4° 1007.8 hPa 8.3 m/s 52.5 mm 10.3° 1007.4 hPa 8.4 m/s 11.4° 1012.2 hPa 7.4 m/s 52.5 mm
22:00 10.5° 1008.3 hPa 8.3 m/s 54.8 mm 10.4° 1008.0 hPa 8.2 m/s 11.9° 1011.4 hPa 9.4 m/s 54.8 mm
 08:55     17:57    Daglengte: 9:02 Dinsdag 08 Dec
01:00 10.5° 1008.9 hPa 8.0 m/s 57.2 mm 10.4° 1008.7 hPa 7.9 m/s 11.7° 1011.6 hPa 9.3 m/s 57.2 mm
04:00 10.0° 1010.7 hPa 6.3 m/s 57.9 mm 10.0° 1010.6 hPa 6.2 m/s 10.4° 1011.7 hPa 8.0 m/s 57.9 mm
07:00 9.6° 1012.5 hPa 4.7 m/s 59.5 mm 9.6° 1012.5 hPa 4.4 m/s 10.1° 1012.3 hPa 8.2 m/s 59.5 mm
10:00 10.2° 1014.2 hPa 5.2 m/s 62.0 mm 10.2° 1014.4 hPa 4.9 m/s 10.1° 1013.1 hPa 8.1 m/s 62.0 mm
13:00 10.9° 1016.0 hPa 5.7 m/s 64.2 mm 10.9° 1016.2 hPa 5.4 m/s 10.6° 1013.9 hPa 8.9 m/s 64.2 mm
16:00 10.5° 1016.9 hPa 5.1 m/s 65.8 mm 10.4° 1017.2 hPa 4.8 m/s 10.8° 1013.6 hPa 7.8 m/s 65.8 mm
19:00 10.0° 1017.8 hPa 4.5 m/s 67.1 mm 10.0° 1018.1 hPa 4.3 m/s 10.0° 1015.0 hPa 7.0 m/s 67.1 mm
22:00 8.9° 1018.9 hPa 3.4 m/s 69.8 mm 8.8° 1019.2 hPa 3.0 m/s 10.4° 1015.9 hPa 6.7 m/s 69.8 mm
 08:56     17:57    Daglengte: 9:01 Woensdag 09 Dec
01:00 7.7° 1020.0 hPa 2.0 m/s 72.1 mm 7.5° 1020.3 hPa 1.8 m/s 10.4° 1017.2 hPa 4.1 m/s 72.1 mm
04:00 7.7° 1020.2 hPa 1.9 m/s 72.5 mm 7.5° 1020.5 hPa 1.9 m/s 9.3° 1017.5 hPa 1.8 m/s 72.5 mm
07:00 7.7° 1020.4 hPa 2.0 m/s 72.5 mm 7.6° 1020.7 hPa 2.0 m/s 8.7° 1017.0 hPa 1.9 m/s 72.5 mm
10:00 8.8° 1020.9 hPa 2.9 m/s 72.7 mm 8.8° 1021.2 hPa 2.9 m/s 9.3° 1016.8 hPa 3.1 m/s 72.7 mm
13:00 10.0° 1021.3 hPa 3.9 m/s 72.9 mm 9.9° 1021.8 hPa 3.8 m/s 11.0° 1015.5 hPa 5.0 m/s 72.9 mm
16:00 9.6° 1020.0 hPa 4.5 m/s 74.3 mm 9.6° 1020.7 hPa 4.4 m/s 10.2° 1012.6 hPa 5.7 m/s 74.3 mm
19:00 9.4° 1018.8 hPa 5.1 m/s 75.1 mm 9.2° 1019.6 hPa 5.0 m/s 11.2° 1010.4 hPa 6.6 m/s 75.1 mm
22:00 9.9° 1018.2 hPa 5.1 m/s 75.8 mm 9.6° 1019.1 hPa 5.0 m/s 12.6° 1008.5 hPa 6.3 m/s 75.8 mm
 08:57     17:57    Daglengte: 9:00 Donderdag 10 Dec
01:00 10.4° 1017.5 hPa 5.4 m/s 82.4 mm 10.1° 1018.6 hPa 5.0 m/s 13.7° 1005.8 hPa 9.5 m/s 82.4 mm
04:00 11.1° 1016.8 hPa 4.8 m/s 92.2 mm 10.9° 1018.0 hPa 4.3 m/s 13.2° 1003.6 hPa 10.1 m/s 92.2 mm
07:00 11.9° 1016.2 hPa 3.9 m/s 98.0 mm 11.8° 1017.4 hPa 3.6 m/s 12.5° 1002.8 hPa 7.7 m/s 98.0 mm
10:00 12.7° 1016.2 hPa 3.9 m/s 100.3 mm 12.7° 1017.3 hPa 3.8 m/s 12.5° 1003.1 hPa 5.5 m/s 100.3 mm
13:00 13.5° 1016.1 hPa 3.8 m/s 101.8 mm 13.6° 1017.3 hPa 3.9 m/s 12.5° 1003.1 hPa 3.2 m/s 101.8 mm
16:00 13.8° 1015.0 hPa 4.1 m/s 103.4 mm 13.9° 1016.2 hPa 4.2 m/s 13.0° 1001.4 hPa 3.0 m/s 103.4 mm
19:00 14.1° 1013.9 hPa 4.4 m/s 105.0 mm 14.2° 1015.1 hPa 4.5 m/s 13.2° 1000.8 hPa 2.7 m/s 105.0 mm
22:00 14.4° 1014.1 hPa 4.1 m/s 106.8 mm 14.4° 1015.4 hPa 4.2 m/s 13.7° 1000.2 hPa 2.5 m/s 106.8 mm
 08:58     17:57    Daglengte: 8:59 Vrijdag 11 Dec
01:00 14.7° 1014.4 hPa 4.0 m/s 107.8 mm 14.7° 1015.7 hPa 4.0 m/s 14.5° 1000.1 hPa 3.6 m/s 107.8 mm
04:00 14.9° 1014.3 hPa 4.1 m/s 108.1 mm 14.9° 1015.7 hPa 4.0 m/s 14.9° 999.8 hPa 5.2 m/s 108.1 mm
07:00 15.1° 1014.3 hPa 4.3 m/s 110.3 mm 15.1° 1015.6 hPa 4.1 m/s 15.3° 1000.3 hPa 6.7 m/s 110.3 mm
10:00 15.6° 1015.0 hPa 5.0 m/s 111.5 mm 15.6° 1016.2 hPa 4.9 m/s 15.1° 1002.2 hPa 6.6 m/s 111.5 mm
13:00 16.0° 1015.9 hPa 5.7 m/s 111.9 mm 16.1° 1016.8 hPa 5.7 m/s 15.2° 1005.7 hPa 5.9 m/s 111.9 mm
19:00 14.0° 1015.6 hPa 5.0 m/s 112.2 mm 13.9° 1016.5 hPa 4.9 m/s 14.6° 1006.1 hPa 6.6 m/s 112.2 mm
 08:59     17:57    Daglengte: 8:58 Zaterdag 12 Dec
01:00 14.3° 1015.1 hPa 8.1 m/s 116.4 mm 14.2° 1015.9 hPa 8.1 m/s 15.0° 1006.2 hPa 8.2 m/s 116.4 mm
07:00 13.7° 1015.0 hPa 5.8 m/s 118.5 mm 13.7° 1015.8 hPa 5.8 m/s 13.9° 1006.2 hPa 5.3 m/s 118.5 mm
13:00 15.4° 1014.9 hPa 6.3 m/s 128.9 mm 15.6° 1015.8 hPa 6.5 m/s 13.3° 1005.0 hPa 4.2 m/s 128.9 mm
19:00 14.8° 1015.6 hPa 4.0 m/s 135.4 mm 14.9° 1016.6 hPa 4.0 m/s 13.2° 1004.4 hPa 4.2 m/s 135.4 mm
 08:59     17:58    Daglengte: 8:59 Zondag 13 Dec
01:00 11.7° 1018.5 hPa 4.9 m/s 138.3 mm 11.7° 1019.3 hPa 4.8 m/s 12.2° 1009.8 hPa 5.7 m/s 138.3 mm
07:00 12.0° 1017.3 hPa 7.1 m/s 139.2 mm 12.1° 1017.7 hPa 7.3 m/s 11.3° 1013.4 hPa 4.9 m/s 139.2 mm
13:00 15.3° 1018.3 hPa 7.1 m/s 139.9 mm 15.5° 1018.5 hPa 7.3 m/s 13.5° 1016.0 hPa 4.9 m/s 139.9 mm
19:00 14.2° 1016.6 hPa 6.6 m/s 140.0 mm 14.5° 1016.8 hPa 6.7 m/s 11.3° 1015.0 hPa 5.1 m/s 140.0 mm
 09:00     17:58    Daglengte: 8:58 Maandag 14 Dec
01:00 12.8° 1013.1 hPa 7.0 m/s 140.0 mm 12.8° 1013.1 hPa 7.0 m/s 140.0 mm
07:00 14.7° 1012.6 hPa 4.8 m/s 146.1 mm 14.7° 1012.6 hPa 4.8 m/s 146.1 mm
13:00 12.8° 1019.5 hPa 2.6 m/s 0.4 mm
19:00 12.0° 1020.1 hPa 1.9 m/s 1.2 mm
 09:01     17:58    Daglengte: 8:57 Dinsdag 15 Dec
01:00 11.4° 1022.0 hPa 1.6 m/s 1.3 mm
07:00 10.8° 1021.9 hPa 1.9 m/s 1.2 mm
13:00 12.6° 1022.8 hPa 2.6 m/s 0.6 mm
19:00 11.8° 1022.7 hPa 1.7 m/s 0.8 mm
 09:02     17:58    Daglengte: 8:56 Woensdag 16 Dec
01:00 11.2° 1023.8 hPa 2.2 m/s 1.7 mm
07:00 10.6° 1024.3 hPa 1.5 m/s 1.6 mm
13:00 12.3° 1026.2 hPa 0.8 m/s 0.7 mm
19:00 11.2° 1026.3 hPa 0.8 m/s 0.6 mm
 09:02     17:59    Daglengte: 8:57 Donderdag 17 Dec
01:00 10.4° 1026.7 hPa 1.0 m/s 0.6 mm
07:00 10.2° 1025.4 hPa 0.9 m/s 0.8 mm
13:00 12.2° 1025.7 hPa 0.3 m/s 2.3 mm
19:00 11.3° 1025.5 hPa 1.5 m/s 1.7 mm
 09:03     17:59    Daglengte: 8:56 Vrijdag 18 Dec
01:00 10.4° 1026.5 hPa 0.9 m/s 0.7 mm
07:00 10.2° 1025.4 hPa 0.6 m/s 0.6 mm
13:00 12.2° 1025.3 hPa 1.2 m/s 1.1 mm
19:00 10.8° 1024.8 hPa 2.0 m/s 0.7 mm
 09:03     18:00    Daglengte: 8:57 Zaterdag 19 Dec
01:00 10.1° 1025.1 hPa 1.7 m/s 0.4 mm
07:00 9.8° 1023.8 hPa 1.3 m/s 0.6 mm
13:00 11.8° 1023.9 hPa 1.7 m/s 0.9 mm
FMI Hirlam - 7.5 km EWN WRFDA - 12 km DWD ICON - 7 km GFS - 25 km Basiskaart






























































Updatetijd (Europe/Amsterdam) Resolutie Lengte Stap
FMI Hirlam 13:00, 19:00, 01:00, 07:00 7.5 km 49h 1h
EWN WRFDA 09:30, 15:30, 21:30, 03:30 12 km 73h 1h
DWD ICON 10:45, 16:45, 22:45, 04:45 7 km 75h 1h
GFS 13:00, 19:00, 01:00, 07:00 25 km 237h 3h
30+ mm
25-30 mm
20-25 mm
15-20 mm
10-15 mm
6-10 mm
4-6 mm
2-4 mm
1-2 mm
0.5-1 mm
0.2-0.5 mm
0.1-0.2 mm
30+ mm
25-30 mm
20-25 mm
15-20 mm
10-15 mm
6-10 mm
4-6 mm
2-4 mm
1-2 mm
0.5-1 mm
0.2-0.5 mm
0.1-0.2 mm
Sneeuwval
Natte sneeuw
Hagel
Vorst
30+ mm
25-30 mm
20-25 mm
15-20 mm
10-15 mm
6-10 mm
4-6 mm
2-4 mm
1-2 mm
0.5-1 mm
0.2-0.5 mm
0.1-0.2 mm
Sneeuwval
Natte sneeuw
Hagel
Vorst
Onweer
50 mm
40 mm
30 mm
26 mm
22 mm
18 mm
14 mm
10 mm
9 mm
8 mm
7 mm
6 mm
5 mm
4.5 mm
4 mm
3.5 mm
3 mm
2.5 mm
2 mm
1.5 mm
1 mm
0.8 mm
0.6 mm
0.4 mm
0.2 mm
0.05 mm
35°
30°
25°
20°